Location: Newark
(5.8900°S, 42.6378°W)
Time: 21:44:28
(UTC+00:00)

deb Explorer IX - Pass Details

Date: 28 October 2019
Orbit: 546 x 1105 km, 38.8° (Epoch: 20 November)

Event Time Altitude Azimuth Distance (km) Brightness Sun altitude
Rises 22:38:11 0° 284° (WNW) 3,815 ? -28.3°
Reaches altitude 10° 22:41:18 10° 272° (W) 2,911 ? -29.1°
Maximum altitude 22:47:16 28° 216° (SW) 1,948 ? -30.5°
Drops below altitude 10° 22:53:20 10° 160° (SSE) 2,942 ? -31.9°
Enters shadow 22:54:54 - 154° (SSE) 3,382 ? -32.3°
